Weather in Cape Shmidt

Russia / Chukotka Autonomous Okrug     68°53′33″N   179°24′42″W
temp.,
°C
wind,
m/s
gust,
m/s
humid.,
%
clouds,
%
prec.,
mm/h
press.,
hPa
HPBL,
m
9 march, tue
tue900:00−27nw349483 0.0 98628
03:00−27wnw3499100 0.1 98767
06:00−26wnw3497100 0.2 989112
09:00−25wnw3595100 0.1 992244
12:00−24wnw1289100 0.1 995374
15:00−24ese1189100 0.1 998339
18:00−25ese2297100 0.1 100052
21:00−25e3398100 0.1 100483
10 march, wed
wed1000:00−26ese3397100 0.1 1005106
03:00−26se1297100 0.1 100789
06:00−26w1297100 0.1 100838
09:00−26wnw1194100 0.1 1010145
12:00−25wsw1187100 0.1 1011173
15:00−27s228125 0.0 101219
18:00−29s347412 0.0 101319
21:00−29wsw226854 0.0 101519
11 march, thu
thu1100:00−29ssw236438 0.0 101619
03:00−29s33640 0.0 101619
06:00−30s23659 0.0 101719
09:00−29s23667 0.0 101719
12:00−26sse33713 0.0 101661
15:00−26se45730 0.0 101652
18:00−28se45740 0.0 101633
21:00−28se44710 0.0 101726
12 march, fri
fri1200:00−28se45680 0.0 101727
03:00−27se45660 0.0 101630
06:00−27se55660 0.0 101641
09:00−25se56680 0.0 101663
12:00−22se56700 0.0 101594
15:00−21se44738 0.0 101443
18:00−22se33704 0.0 101420
21:00−21se23660 0.0 101320
13 march, sat
sat1300:00−19ese346724 0.0 101225
03:00−19e237496 0.0 101124
06:00−19nne128093 0.0 100920
09:00−18nw2280100 0.0 100777
12:00−17nw2284100 0.0 1004121
15:00−16wnw4496100 0.1 1002130
18:00−18wnw5697100 0.5 1000145
21:00−18wnw3495100 0.1 100073